Погода в Амуре

Россия / Иркутская область     54°13′08″N   101°06′48″E
темп.,
°C
ветер,
м/с
пор.,
м/с
влажн.,
%
обл.,
%
осадки,
мм/ч
давл.,
гПа
погр.,
м
18 мая, вт
вт1823:00+5з2897100 0.1 1012248
02:00+4з279596 0.1 1012179
05:00+5зюз3894100 0.1 1011249
08:00+6з3584100 0.3 1011741
11:00+7з2581100 0.3 1009820
14:00+9з3469100 0.6 10061110
17:00+11зсз3463100 0.1 10041233
20:00+6ссз2495100 4.2 1003216
19 мая, ср
ср1923:00+6сз2596100 3.9 1004268
02:00+5сз3795100 4.1 1005345
05:00+2зсз269787 0.0 1007165
08:00+6зсз248398 0.0 1007334
11:00+11з116188 0.0 10051092
14:00+14юв124198 0.1 10021701
17:00+13юв3447100 0.0 9991680
20:00+8св2583100 1.4 1000263
20 мая, чт
чт2023:00+6с2589100 4.6 1001423
02:00+5с3784100 5.1 1003415
05:00+4ссз1292100 0.2 100468
08:00+5с2475100 0.2 1005512
11:00+9вюв2355100 0.0 10051236
14:00+10в2350100 0.0 10041669
17:00+11всв2549100 0.0 10021488
20:00+8з3667100 0.0 1004162
21 мая, пт
пт2123:00+6сз2668100 0.1 1004167
02:00+5ссв3970100 0.5 1003322
05:00+3ссв4991100 2.3 1003638
08:00+4сз4882100 3.9 1005536
11:00+4ссз61078100 0.4 10061068
14:00+5ссз61260100 0.8 10071667
17:00+6сз51353100 0.3 10092341
20:00+7сз51148100 0.3 1010751
22 мая, сб
сб2223:00+6сз51351100 0.0 1011771
02:00+6зсз61564100 0.0 1013754
05:00+5сз71568100 0.0 1014681
08:00+6сз61267100 0.1 10171118
11:00+8сз61155100 0.3 10161906
14:00+10сз6105158 1.0 10161906
17:00+10сз6105618 1.0 10162096
20:00+7зсз5107025 2.1 1017737